TimeMDT,TemperatureF,Dew PointF,Humidity,Sea Level PressureIn,VisibilityMPH,Wind Direction,Wind SpeedMPH,Gust SpeedMPH,PrecipitationIn,Events,Conditions,WindDirDegrees,DateUTC
12:19 AM,62.6,59.0,88,30.02,10.0,NNE,15.0,-,0.03,,Overcast,20,2013-09-15 06:19:00
12:42 AM,60.8,57.2,88,30.03,10.0,NNE,13.8,-,0.03,,Overcast,30,2013-09-15 06:42:00
12:53 AM,61.0,57.9,90,29.92,10.0,NNE,12.7,-,0.03,,Overcast,30,2013-09-15 06:53:00
1:15 AM,60.8,57.2,88,30.04,10.0,NNE,10.4,-,N/A,,Overcast,20,2013-09-15 07:15:00
1:53 AM,61.0,57.9,90,30.06,10.0,NNE,10.4,-,N/A,,Overcast,20,2013-09-15 07:53:00
2:53 AM,60.1,55.9,86,29.95,10.0,NNE,12.7,-,N/A,,Overcast,30,2013-09-15 08:53:00
3:53 AM,60.1,55.9,86,29.98,10.0,NE,12.7,-,N/A,,Overcast,40,2013-09-15 09:53:00
4:53 AM,59.0,55.0,87,29.99,10.0,NNE,11.5,-,N/A,,Overcast,30,2013-09-15 10:53:00
5:53 AM,59.0,55.0,87,30.02,10.0,NE,9.2,18.4,N/A,,Overcast,40,2013-09-15 11:53:00
6:14 AM,59.0,55.4,88,30.13,10.0,NNE,9.2,-,N/A,,Overcast,30,2013-09-15 12:14:00
6:53 AM,59.0,55.0,87,30.06,10.0,NE,12.7,-,N/A,,Unknown,50,2013-09-15 12:53:00
7:15 AM,59.0,55.4,88,30.16,10.0,NE,11.5,-,N/A,,Overcast,40,2013-09-15 13:15:00
7:53 AM,59.0,55.0,87,30.08,10.0,NE,13.8,-,N/A,,Overcast,40,2013-09-15 13:53:00
8:13 AM,59.0,55.4,88,30.17,10.0,NNE,16.1,24.2,N/A,,Overcast,30,2013-09-15 14:13:00
8:26 AM,60.8,55.4,82,30.18,10.0,NNE,13.8,-,N/A,,Overcast,30,2013-09-15 14:26:00
8:53 AM,60.1,55.0,83,30.11,10.0,NE,17.3,-,N/A,,Overcast,40,2013-09-15 14:53:00
9:06 AM,60.8,55.4,82,30.20,10.0,NE,16.1,24.2,N/A,,Overcast,40,2013-09-15 15:06:00
9:20 AM,60.8,55.4,82,30.21,10.0,NNE,17.3,-,N/A,,Overcast,30,2013-09-15 15:20:00
9:31 AM,60.8,55.4,82,30.21,10.0,NNE,15.0,-,N/A,,Overcast,30,2013-09-15 15:31:00
9:38 AM,60.8,55.4,82,30.21,7.0,NNE,17.3,-,N/A,,Overcast,30,2013-09-15 15:38:00
9:49 AM,59.0,57.2,94,30.22,3.0,NNE,15.0,-,N/A,,Overcast,30,2013-09-15 15:49:00
9:53 AM,59.0,57.0,93,30.14,4.0,NE,15.0,21.9,N/A,,Overcast,40,2013-09-15 15:53:00
10:11 AM,62.6,55.4,77,30.23,10.0,NE,18.4,-,N/A,,Overcast,40,2013-09-15 16:11:00
10:29 AM,62.6,55.4,77,30.23,10.0,NE,16.1,-,N/A,,Overcast,40,2013-09-15 16:29:00
10:53 AM,61.0,55.0,81,30.16,10.0,NE,19.6,25.3,N/A,,Overcast,40,2013-09-15 16:53:00
11:08 AM,60.8,53.6,77,30.24,10.0,NE,17.3,-,N/A,,Overcast,40,2013-09-15 17:08:00
11:21 AM,60.8,55.4,82,30.24,5.0,NE,13.8,-,0.00,Rain,Light Rain,40,2013-09-15 17:21:00
11:53 AM,63.0,52.0,67,30.16,10.0,NE,18.4,23.0,0.00,,Overcast,50,2013-09-15 17:53:00
12:53 PM,64.0,53.1,67,30.17,10.0,NE,15.0,-,N/A,,Overcast,40,2013-09-15 18:53:00
1:53 PM,63.0,53.1,70,30.19,10.0,NE,15.0,24.2,N/A,,Overcast,50,2013-09-15 19:53:00
2:29 PM,62.6,51.8,68,30.27,10.0,ENE,15.0,-,N/A,,Overcast,60,2013-09-15 20:29:00
2:53 PM,61.0,52.0,72,30.20,10.0,East,12.7,-,N/A,,Overcast,80,2013-09-15 20:53:00
3:53 PM,62.1,51.1,67,30.20,10.0,ENE,11.5,-,N/A,,Overcast,70,2013-09-15 21:53:00
4:53 PM,62.1,51.1,67,30.20,10.0,ENE,10.4,-,N/A,,Mostly Cloudy,60,2013-09-15 22:53:00
5:53 PM,62.1,50.0,65,30.20,10.0,ENE,9.2,-,N/A,,Mostly Cloudy,70,2013-09-15 23:53:00
6:53 PM,57.9,51.1,78,30.21,10.0,East,6.9,-,N/A,,Mostly Cloudy,80,2013-09-16 00:53:00
7:53 PM,53.1,48.9,86,30.23,10.0,East,6.9,-,N/A,,Clear,90,2013-09-16 01:53:00
8:53 PM,52.0,50.0,93,30.25,10.0,East,6.9,-,N/A,,Partly Cloudy,100,2013-09-16 02:53:00
9:53 PM,52.0,48.9,89,30.25,10.0,ESE,9.2,-,N/A,,Clear,110,2013-09-16 03:53:00
10:53 PM,48.9,48.0,97,30.26,10.0,SE,5.8,-,N/A,,Scattered Clouds,130,2013-09-16 04:53:00
11:40 PM,51.8,50.0,94,30.30,10.0,ESE,5.8,-,N/A,,Overcast,120,2013-09-16 05:40:00
11:53 PM,52.0,50.0,93,30.24,10.0,SE,5.8,-,N/A,,Overcast,130,2013-09-16 05:53:00